FW2111 Weather Reports


time (UTC)temp
C
wind
direction
speed
KPH
gust
KPH
rain 1hr
cm
rain 24hr
cm
rain mn
cm
humidity
%
barometer
mb
20260906173657 20 117 8.0 16.1 0.00 0.00 0.00 72 1021.5
20260906173155 20 98 8.0 16.1 0.00 0.00 0.00 73 1021.6
20260906173130 20 123 6.4 16.1 0.00 0.00 0.00 72 1021.6
20260906172125 19 127 8.0 16.1 0.00 0.00 0.00 72 1021.7
20260906171829 19 113 8.0 14.5 0.00 0.00 0.00 73 1021.8
20260906171054 19 141 8.0 14.5 0.00 0.00 0.00 72 1021.9
20260906170551 19 151 8.0 16.1 0.00 0.00 0.00 73 1022.0
20260906170048 19 136 8.0 16.1 0.00 0.00 0.00 72 1021.9
20260906165521 19 157 8.0 16.1 0.00 0.00 0.00 72 1022.0
20260906165250 19 133 8.0 16.1 0.00 0.00 0.00 73 1021.9
20260906164453 20 120 6.4 12.9 0.00 0.00 0.00 72 1022.0
20260906164207 19 134 6.4 11.3 0.00 0.00 0.00 73 1022.0
20260906163409 19 137 6.4 12.9 0.00 0.00 0.00 73 1022.0
20260906162846 19 103 8.0 12.9 0.00 0.00 0.00 73 1022.0
20260906162842 19 129 6.4 12.9 0.00 0.00 0.00 73 1022.0
20260906161811 19 101 6.4 12.9 0.00 0.00 0.00 72 1021.9
20260906161309 19 80 6.4 16.1 0.00 0.00 0.00 73 1022.0
20260906160741 19 116 8.0 16.1 0.00 0.00 0.00 73 1022.0
20260906160215 18 126 8.0 14.5 0.00 0.00 0.00 73 1022.0
20260906155652 19 134 6.4 14.5 0.00 0.00 0.00 73 1022.0
20260906155130 19 131 8.0 16.1 0.00 0.00 0.00 72 1022.0
20260906154633 19 98 8.0 16.1 0.00 0.00 0.00 73 1021.9
20260906154107 19 132 8.0 14.5 0.00 0.00 0.00 72 1022.0
20260906153547 19 111 8.0 16.1 0.00 0.00 0.00 73 1021.9
20260906153048 19 105 6.4 16.1 0.00 0.00 0.00 73 1021.9
20260906152526 18 81 6.4 16.1 0.00 0.00 0.00 73 1022.1
20260906152025 18 86 8.0 17.7 0.00 0.00 0.00 74 1022.1
20260906151502 18 92 8.0 17.7 0.00 0.00 0.00 74 1021.9
20260906151000 18 86 8.0 16.1 0.00 0.00 0.00 74 1022.1
20260906150459 18 89 8.0 17.7 0.00 0.00 0.00 74 1022.1
20260906145958 18 115 9.7 17.7 0.00 0.00 0.00 74 1022.2
20260906145440 18 98 9.7 16.1 0.00 0.00 0.00 74 1022.0
20260906144917 18 82 8.0 14.5 0.00 0.00 0.00 74 1022.0
20260906144417 18 112 9.7 17.7 0.00 0.00 0.00 75 1022.1
20260906144136 18 103 8.0 17.7 0.00 0.00 0.00 74 1022.1
20260906143403 18 110 8.0 17.7 0.00 0.00 0.00 74 1022.0
20260906142902 18 84 9.7 19.3 0.00 0.00 0.00 74 1022.1
20260906142402 18 102 8.0 19.3 0.00 0.00 0.00 73 1022.1
20260906141903 18 96 8.0 16.1 0.00 0.00 0.00 73 1022.1
20260906141349 18 100 8.0 16.1 0.00 0.00 0.00 73 1022.1
20260906141343 18 94 8.0 16.1 0.00 0.00 0.00 73 1022.1
20260906140323 18 107 6.4 14.5 0.00 0.00 0.00 73 1022.3
20260906135820 18 88 6.4 12.9 0.00 0.00 0.00 74 1022.3
20260906135322 18 78 6.4 12.9 0.00 0.00 0.00 73 1022.3
20260906135031 18 93 4.8 12.9 0.00 0.00 0.00 74 1022.2
20260906134253 17 42 4.8 12.9 0.00 0.00 0.00 74 1022.2
20260906133753 17 67 4.8 11.3 0.00 0.00 0.00 74 1022.1
20260906133251 17 53 3.2 9.7 0.00 0.00 0.00 74 1022.2
20260906132751 18 78 3.2 9.7 0.00 0.00 0.00 74 1022.4
20260906132521 17 84 4.8 11.3 0.00 0.03 0.00 74 1022.4
20260906131753 17 49 4.8 11.3 0.00 0.03 0.00 73 1022.5
20260906131249 18 58 3.2 8.0 0.00 0.03 0.00 73 1022.4
20260906130724 17 82 1.6 8.0 0.00 0.03 0.00 74 1022.3
20260906130158 17 28 3.2 9.7 0.00 0.03 0.00 74 1022.2
20260906125657 17 49 4.8 9.7 0.00 0.03 0.00 74 1022.2
20260906125128 17 77 3.2 8.0 0.00 0.03 0.00 74 1022.0
20260906124626 17 54 3.2 6.4 0.00 0.03 0.00 75 1022.0
20260906124137 17 67 3.2 6.4 0.00 0.03 0.00 75 1021.8
20260906123620 17 42 1.6 6.4 0.00 0.03 0.00 75 1021.8
20260906123348 17 34 1.6 8.0 0.00 0.03 0.00 76 1021.7
20260906122550 17 43 3.2 9.7 0.00 0.03 0.00 76 1021.7
20260906122311 16 50 3.2 9.7 0.00 0.03 0.00 76 1021.6
20260906121539 16 30 3.2 11.3 0.00 0.03 0.00 77 1021.5
20260906121038 16 70 4.8 11.3 0.00 0.03 0.00 77 1021.5
20260906120534 16 49 4.8 8.0 0.00 0.03 0.00 77 1021.5
20260906120010 16 21 4.8 12.9 0.00 0.03 0.00 77 1021.5
20260906115507 16 73 3.2 12.9 0.00 0.03 0.00 77 1021.4
20260906115004 16 35 3.2 8.0 0.00 0.03 0.00 78 1021.4
20260906114436 16 26 3.2 8.0 0.00 0.03 0.00 78 1021.4
20260906113909 16 48 3.2 8.0 0.00 0.03 0.00 78 1021.5
20260906113406 16 37 3.2 8.0 0.00 0.03 0.00 78 1021.4
20260906112904 15 26 3.2 8.0 0.00 0.03 0.00 79 1021.2
20260906112336 15 17 3.2 8.0 0.00 0.03 0.00 79 1021.2
20260906112105 15 5 1.6 6.4 0.00 0.03 0.00 79 1021.2
20260906111538 15 355 1.6 6.4 0.00 0.03 0.00 80 1021.2
20260906110803 15 17 1.6 6.4 0.00 0.03 0.00 80 1021.1
20260906110238 15 26 1.6 6.4 0.00 0.03 0.00 81 1021.0
20260906105711 15 29 1.6 6.4 0.00 0.03 0.00 81 1020.9
20260906105207 15 34 1.6 4.8 0.00 0.03 0.00 82 1020.8
20260906104642 14 46 1.6 4.8 0.00 0.03 0.00 82 1020.8
20260906104405 14 46 1.6 3.2 0.00 0.03 0.00 82 1020.8
20260906103902 14 46 1.6 3.2 0.00 0.03 0.00 82 1020.8
20260906103105 14 46 1.6 3.2 0.00 0.03 0.00 81 1020.9
20260906102602 14 46 1.6 3.2 0.00 0.03 0.00 81 1020.8
20260906102058 14 46 1.6 3.2 0.00 0.03 0.00 81 1020.9
20260906101555 14 46 1.6 1.6 0.00 0.03 0.00 81 1020.8
20260906101044 14 46 1.6 3.2 0.00 0.03 0.00 81 1020.9
20260906100546 14 46 1.6 3.2 0.00 0.03 0.00 81 1020.9
20260906100019 14 46 1.6 3.2 0.00 0.03 0.00 80 1020.9
20260906095507 15 46 1.6 3.2 0.00 0.03 0.00 80 1020.9
20260906095006 15 49 0.0 3.2 0.00 0.03 0.00 80 1020.9
20260906094504 15 49 0.0 0.0 0.00 0.03 0.00 80 1020.9
20260906093938 15 49 0.0 3.2 0.00 0.03 0.00 80 1020.8
20260906093411 15 49 1.6 3.2 0.00 0.03 0.00 80 1020.8
20260906092907 15 49 1.6 3.2 0.00 0.03 0.00 80 1020.8
20260906092342 15 49 0.0 3.2 0.00 0.03 0.00 80 1020.7
20260906091814 15 49 0.0 0.0 0.00 0.03 0.00 80 1020.7
20260906091313 15 49 0.0 1.6 0.00 0.03 0.00 79 1020.6
20260906090744 15 49 0.0 1.6 0.00 0.03 0.00 78 1020.7
20260906090242 16 49 0.0 3.2 0.00 0.03 0.00 79 1020.6
20260906085948 16 49 0.0 1.6 0.00 0.03 0.00 78 1020.8
20260906085150 16 49 0.0 1.6 0.00 0.03 0.00 78 1020.8
20260906084644 16 49 0.0 1.6 0.00 0.03 0.00 78 1020.8
20260906084142 16 49 0.0 1.6 0.00 0.03 0.00 77 1020.8
20260906083615 16 49 1.6 6.4 0.00 0.03 0.00 77 1020.7
20260906083110 16 49 3.2 6.4 0.00 0.03 0.00 77 1020.8
20260906082544 16 48 1.6 3.2 0.00 0.03 0.00 77 1020.8
20260906082038 16 48 0.0 3.2 0.00 0.03 0.00 77 1020.8
20260906081807 16 48 0.0 4.8 0.00 0.03 0.00 77 1020.8
20260906081008 16 48 1.6 4.8 0.00 0.03 0.00 78 1021.0
20260906080505 16 49 1.6 4.8 0.00 0.03 0.00 78 1021.0
20260906075939 16 49 1.6 4.8 0.00 0.03 0.00 78 1021.2
20260906075436 16 49 0.0 3.2 0.00 0.03 0.00 78 1021.1
20260906074911 17 49 1.6 3.2 0.00 0.03 0.00 78 1021.2
20260906074346 17 49 1.6 4.8 0.00 0.03 0.00 78 1021.3
20260906074342 17 49 1.6 4.8 0.00 0.03 0.00 78 1021.1
20260906073313 17 49 1.6 4.8 0.00 0.03 0.00 78 1021.2
20260906073018 17 52 0.0 4.8 0.00 0.03 0.00 78 1021.3
20260906072245 17 52 1.6 4.8 0.00 0.03 0.00 78 1021.2
20260906071741 17 52 3.2 8.0 0.00 0.03 0.00 79 1021.2
20260906071216 17 52 3.2 8.0 0.00 0.03 0.00 79 1021.3
20260906070655 17 28 3.2 6.4 0.00 0.03 0.00 79 1021.1
20260906070140 17 28 1.6 4.8 0.00 0.03 0.00 79 1021.0
20260906065638 17 30 1.6 4.8 0.00 0.03 0.00 79 1020.7
20260906065345 17 33 0.0 4.8 0.00 0.03 0.00 79 1020.7
20260906064843 17 34 1.6 4.8 0.00 0.03 0.00 80 1020.8
20260906064109 16 34 1.6 4.8 0.00 0.03 0.00 80 1020.8
20260906063610 16 22 1.6 4.8 0.00 0.03 0.00 80 1021.0
20260906063108 16 15 1.6 4.8 0.00 0.03 0.00 80 1020.9
20260906062605 16 16 1.6 3.2 0.00 0.03 0.00 79 1020.6
20260906062103 16 16 1.6 3.2 0.00 0.03 0.00 79 1020.6
20260906061602 17 16 1.6 4.8 0.00 0.03 0.00 79 1020.7
20260906061102 17 16 1.6 4.8 0.00 0.03 0.00 78 1020.8
20260906060602 17 17 1.6 4.8 0.00 0.03 0.00 78 1021.0
20260906060051 17 18 1.6 4.8 0.00 0.03 0.00 78 1020.8
20260906055550 17 19 1.6 6.4 0.00 0.03 0.00 78 1020.7
20260906055033 17 19 1.6 6.4 0.00 0.03 0.00 78 1020.8
20260906054535 17 21 3.2 6.4 0.00 0.03 0.00 78 1020.7
20260906054020 17 23 4.8 8.0 0.00 0.03 0.00 78 1020.8
20260906053518 17 27 3.2 8.0 0.00 0.03 0.00 78 1020.8
20260906052952 17 12 3.2 6.4 0.00 0.03 0.00 78 1020.8
20260906052425 17 38 1.6 4.8 0.00 0.03 0.00 78 1020.9
20260906052133 17 37 1.6 4.8 0.00 0.03 0.00 78 1020.9
20260906051335 17 37 1.6 4.8 0.00 0.03 0.00 78 1020.8
20260906050817 17 15 3.2 6.4 0.00 0.03 0.00 78 1021.0
20260906050316 17 40 3.2 6.4 0.00 0.03 0.00 78 1021.1
20260906045752 17 24 3.2 6.4 0.00 0.03 0.03 77 1021.0
20260906045231 17 32 3.2 6.4 0.00 0.03 0.03 77 1021.1
20260906044730 17 33 1.6 6.4 0.00 0.03 0.03 77 1021.1
20260906044707 17 36 1.6 4.8 0.00 0.03 0.03 77 1021.1
20260906043641 17 36 1.6 4.8 0.00 0.03 0.03 77 1021.0
20260906043141 17 30 1.6 6.4 0.00 0.03 0.03 77 1021.1
20260906042638 17 28 1.6 6.4 0.00 0.03 0.03 77 1021.1
20260906042413 17 27 1.6 6.4 0.00 0.03 0.03 77 1021.2
20260906041616 17 30 3.2 6.4 0.00 0.03 0.03 77 1021.2
20260906041114 17 28 1.6 4.8 0.00 0.03 0.03 77 1021.3
20260906040556 17 44 1.6 6.4 0.00 0.03 0.03 77 1021.2
20260906040055 17 39 3.2 8.0 0.00 0.03 0.03 76 1021.1
20260906035546 17 39 3.2 8.0 0.00 0.03 0.03 76 1021.1
20260906035048 17 5 3.2 8.0 0.00 0.03 0.03 76 1021.0
20260906034528 17 24 3.2 8.0 0.00 0.03 0.03 76 1021.0
20260906034023 17 34 3.2 11.3 0.00 0.03 0.03 75 1021.1
20260906033738 17 42 3.2 11.3 0.00 0.03 0.03 75 1020.9
20260906033008 17 67 3.2 12.9 0.00 0.03 0.03 75 1020.8
20260906032443 18 98 4.8 12.9 0.00 0.03 0.03 75 1020.7
20260906031934 18 82 4.8 12.9 0.00 0.03 0.03 75 1020.8
20260906031434 18 84 4.8 9.7 0.00 0.03 0.03 75 1020.9
20260906030934 18 69 3.2 8.0 0.00 0.03 0.03 75 1020.9
20260906030413 18 74 4.8 9.7 0.00 0.03 0.03 75 1020.9
20260906025911 18 69 4.8 12.9 0.00 0.03 0.03 75 1020.8
20260906025412 18 58 4.8 12.9 0.00 0.03 0.03 75 1020.5
20260906025119 18 53 3.2 11.3 0.00 0.03 0.03 76 1020.5
20260906024348 18 53 3.2 8.0 0.00 0.03 0.03 76 1020.4
20260906023825 17 56 3.2 8.0 0.00 0.03 0.03 76 1020.4
20260906023326 17 69 3.2 9.7 0.00 0.03 0.03 77 1020.1
20260906022826 17 69 3.2 9.7 0.00 0.03 0.03 77 1020.1
20260906022300 17 83 4.8 11.3 0.00 0.03 0.03 77 1020.0
20260906021801 17 49 4.8 11.3 0.00 0.03 0.03 78 1019.9
20260906021235 17 64 3.2 9.7 0.00 0.03 0.03 78 1019.9
20260906020711 17 71 3.2 9.7 0.00 0.03 0.03 78 1020.0
20260906020209 17 32 3.2 9.7 0.00 0.03 0.03 78 1020.0
20260906015707 17 29 4.8 12.9 0.00 0.03 0.03 79 1020.0
20260906015143 17 69 4.8 14.5 0.00 0.03 0.03 79 1019.9
20260906014617 17 58 4.8 14.5 0.00 0.03 0.03 79 1019.6
20260906014051 17 39 3.2 8.0 0.00 0.03 0.03 79 1019.6
20260906013546 17 78 3.2 9.7 0.00 0.03 0.03 79 1019.5
20260906013041 17 57 4.8 9.7 0.00 0.03 0.03 79 1019.6
20260906012517 17 80 4.8 11.3 0.00 0.03 0.03 79 1019.5
20260906011950 17 80 4.8 11.3 0.00 0.03 0.03 79 1019.6
20260906011425 17 64 4.8 11.3 0.00 0.03 0.03 79 1019.7
20260906010920 17 72 4.8 12.9 0.00 0.03 0.03 79 1019.7
20260906010417 17 55 3.2 12.9 0.00 0.03 0.03 79 1019.9
20260906005851 17 55 4.8 9.7 0.00 0.03 0.03 79 1019.7
20260906005323 17 61 6.4 14.5 0.00 0.03 0.03 79 1019.5
20260906004821 17 48 6.4 14.5 0.00 0.03 0.03 79 1019.5
20260906004256 17 61 4.8 11.3 0.00 0.03 0.03 79 1019.3
20260906004001 17 63 4.8 9.7 0.00 0.03 0.03 79 1019.3
20260906003201 17 79 4.8 11.3 0.00 0.03 0.03 80 1019.3
20260906002659 17 18 3.2 8.0 0.00 0.03 0.03 80 1019.4
20260906002133 17 117 4.8 11.3 0.00 0.03 0.03 80 1019.4
20260906001605 17 63 4.8 17.7 0.00 0.03 0.03 80 1019.5
20260906001102 17 67 4.8 17.7 0.00 0.03 0.03 80 1019.7
20260906000537 17 67 6.4 11.3 0.00 0.03 0.03 80 1019.6
20260906000033 17 103 6.4 14.5 0.00 0.03 0.03 80 1019.6
20260905235531 17 82 6.4 14.5 0.00 0.03 0.03 79 1019.7
20260905235004 17 69 6.4 12.9 0.00 0.03 0.03 80 1019.9
20260905234501 17 74 6.4 11.3 0.00 0.03 0.03 79 1019.9
20260905234450 17 84 6.4 14.5 0.00 0.03 0.03 79 1020.1
20260905233451 17 74 6.4 14.5 0.00 0.03 0.03 79 1020.3
20260905232925 17 42 6.4 14.5 0.00 0.03 0.03 79 1020.3
20260905232420 17 96 6.4 12.9 0.00 0.03 0.03 79 1020.0
20260905231855 17 55 6.4 14.5 0.00 0.03 0.03 79 1020.2
20260905231330 17 82 6.4 12.9 0.00 0.03 0.03 79 1020.3
20260905230825 17 112 6.4 14.5 0.00 0.03 0.03 79 1020.3
20260905230323 17 55 4.8 12.9 0.00 0.03 0.03 79 1020.3
20260905225811 18 68 4.8 12.9 0.00 0.03 0.03 79 1020.2
20260905225309 18 80 6.4 12.9 0.00 0.03 0.03 79 1020.2
20260905224742 18 67 6.4 12.9 0.00 0.03 0.03 79 1020.2
20260905224239 18 96 4.8 12.9 0.00 0.03 0.03 79 1020.1
20260905223736 18 88 6.4 12.9 0.00 0.03 0.03 79 1020.2
20260905223505 18 96 6.4 12.9 0.00 0.03 0.03 79 1020.3
20260905222731 18 67 6.4 12.9 0.00 0.03 0.03 78 1020.3
20260905222204 18 96 4.8 12.9 0.00 0.03 0.03 78 1020.4
20260905221701 18 97 4.8 11.3 0.00 0.03 0.03 79 1020.5
20260905221140 18 97 4.8 11.3 0.00 0.03 0.03 79 1020.3
20260905220603 18 92 4.8 11.3 0.00 0.03 0.03 79 1020.3
20260905220100 17 64 6.4 11.3 0.00 0.03 0.03 79 1020.3
20260905215535 17 108 4.8 14.5 0.00 0.03 0.03 79 1020.4
20260905215007 17 103 6.4 14.5 0.00 0.03 0.03 79 1020.5
20260905214505 17 96 4.8 11.3 0.00 0.03 0.03 79 1020.5
20260905213939 17 78 4.8 11.3 0.00 0.03 0.03 79 1020.6
20260905213411 17 107 4.8 9.7 0.00 0.03 0.03 80 1020.6
20260905212909 17 104 4.8 11.3 0.00 0.03 0.03 79 1020.8
20260905212343 17 134 4.8 11.3 0.00 0.03 0.03 79 1020.7
20260905211837 17 101 4.8 11.3 0.00 0.03 0.03 79 1020.8
20260905211334 17 76 6.4 16.1 0.00 0.03 0.03 80 1020.9
20260905210808 17 76 6.4 16.1 0.00 0.03 0.03 79 1020.8
20260905210243 17 116 6.4 14.5 0.00 0.03 0.03 79 1021.0
20260905210217 17 107 4.8 9.7 0.00 0.03 0.03 79 1020.8
20260905205211 17 107 3.2 11.3 0.00 0.03 0.03 79 1020.9
20260905204647 17 131 3.2 11.3 0.00 0.03 0.03 79 1020.9
20260905204350 17 171 4.8 14.5 0.00 0.03 0.03 79 1021.0
20260905203617 17 130 6.4 14.5 0.00 0.03 0.03 79 1020.9
20260905203050 17 107 4.8 12.9 0.00 0.03 0.03 79 1020.8
20260905202547 17 131 4.8 11.3 0.00 0.03 0.03 79 1020.7
20260905202021 17 97 4.8 11.3 0.00 0.03 0.03 79 1020.9
20260905201454 18 134 6.4 17.7 0.00 0.03 0.03 78 1021.0
20260905201221 18 64 4.8 17.7 0.00 0.03 0.03 78 1021.0
20260905200658 18 127 3.2 16.1 0.00 0.03 0.03 77 1021.1
20260905195900 18 90 8.0 19.3 0.00 0.03 0.03 78 1020.9
20260905195331 18 53 9.7 19.3 0.00 0.03 0.03 78 1020.8
20260905194817 18 69 8.0 17.7 0.00 0.03 0.03 77 1020.8
20260905194549 18 66 9.7 20.9 0.00 0.03 0.03 77 1020.8
20260905193808 18 85 8.0 20.9 0.00 0.03 0.03 76 1020.8
20260905193311 19 130 6.4 17.7 0.00 0.03 0.03 77 1020.8
20260905192743 18 89 8.0 20.9 0.00 0.03 0.03 78 1020.9
20260905192241 18 74 11.3 22.5 0.00 0.03 0.03 78 1020.9
20260905191720 18 74 9.7 22.5 0.00 0.03 0.03 77 1020.8
20260905191221 18 77 8.0 17.7 0.00 0.03 0.03 77 1020.9
20260905190658 18 82 6.4 16.1 0.00 0.03 0.03 78 1020.9
20260905190156 18 103 6.4 14.5 0.00 0.03 0.03 78 1020.8
20260905185909 18 64 6.4 14.5 0.00 0.03 0.03 79 1020.9
20260905185409 18 92 6.4 14.5 0.00 0.03 0.03 79 1021.0
20260905184640 18 111 8.0 16.1 0.00 0.03 0.03 79 1021.0
20260905184118 18 81 8.0 16.1 0.00 0.03 0.03 80 1020.9
20260905183619 18 95 6.4 19.3 0.00 0.03 0.03 80 1020.8
20260905183051 18 59 8.0 17.7 0.00 0.03 0.03 80 1020.8
20260905182549 17 85 8.0 17.7 0.00 0.03 0.03 80 1020.8
20260905182033 18 103 8.0 17.7 0.00 0.03 0.03 80 1020.9
20260905181534 18 103 8.0 17.7 0.00 0.03 0.03 80 1020.9
20260905181034 18 127 9.7 16.1 0.00 0.03 0.03 80 1021.0
20260905180520 18 94 8.0 16.1 0.00 0.03 0.03 81 1021.0
20260905180022 18 118 6.4 16.1 0.00 0.03 0.03 82 1020.9
20260905175507 17 94 4.8 9.7 0.00 0.03 0.03 82 1020.9
20260905175004 17 110 4.8 12.9 0.00 0.03 0.03 83 1021.0
20260905174506 17 111 4.8 12.9 0.00 0.03 0.03 83 1021.2